Flag for Germany Weather past 2 weeks in Rotenburg (Wümme), Lower Saxony, Germany

Now
63 °F

Passing clouds.


Feels Like: 63 °F
Forecast: 44 / 67 °F
Wind: 13 mph from West

Location: Bremen

Current Time: Jun 3, 2015 at 3:48:57 AM

Latest Report: Jun 3, 2015 at 3:00 AM


Visibility: 22 mi

Pressure: 29.86 "Hg

Humidity: 68%

Dew point: 53 °F

Location of Rotenburg (Wümme)Location

Historic Weather in Rotenburg (Wümme) — Graph

°F

Rotenburg (Wümme) temperature yesterday

Maximum temperature yesterday: 66 °F (at 10:00 PM)
Minimum temperature yesterday: 51 °F (at 1:00 AM)
Average temperature yesterday: 59 °F

Past Weeks' High & Low Weather Summary

 TemperatureHumidityPressure
High66 °F (May 24, 7:00 PM)100% (May 24, 3:00 AM)30.31 "Hg (May 24, 3:00 AM)
Low36 °F (May 24, 5:00 AM)36% (May 25, 5:00 PM)29.59 "Hg (May 19, 5:00 AM)
Average53 °F72%29.98 "Hg
* Reported May 19 3:00 AM — Jun 3 3:00 AM, Rotenburg (Wümme), Weather by CustomWeather, © 2015

Note: Actual official high and low records may vary slightly from our data, if they occured in-between our weather recording intervals... More about our weather records

Advertising

Rotenburg (Wümme) weather history for previous 24 hours

 ConditionsComfort  
Time TempWeatherWind HumidityBarometerVisibility
3:00 AM
Wed, Jun 3
63 °FPassing clouds.13 mph68%29.86 "Hg22 mi
2:00 AM64 °FPassing clouds.6 mph73%29.85 "Hg22 mi
1:00 AM64 °FOvercast.8 mph73%29.84 "Hg22 mi
12:00 AM65 °FOvercast.10 mph69%29.83 "Hg19 mi
10:00 PM
Tue, Jun 2
66 °FOvercast.10 mph66%29.81 "Hg19 mi
9:00 PM65 °FOvercast.9 mph71%29.80 "Hg19 mi
8:00 PM64 °FOvercast.10 mph70%29.81 "Hg22 mi
7:00 PM65 °FOvercast.10 mph67%29.80 "Hg14 mi
6:00 PM66 °FOvercast.13 mph67%29.79 "Hg14 mi
4:00 PM62 °FOvercast.10 mph70%29.78 "Hg16 mi
3:00 PM62 °FOvercast.10 mph70%29.78 "Hg16 mi
2:00 PM62 °FOvercast.13 mph69%29.76 "Hg16 mi
1:00 PM61 °FOvercast.12 mph66%29.76 "Hg17 mi
12:00 PM60 °FOvercast.9 mph64%29.76 "Hg22 mi
11:00 AM58 °FLight rain. Overcast.9 mph66%29.76 "Hg17 mi
10:00 AM59 °FLight rain. Overcast.10 mph64%29.75 "Hg16 mi
9:00 AM60 °FOvercast.10 mph59%29.75 "Hg16 mi
8:00 AM57 °FPartly sunny.9 mph65%29.78 "Hg22 mi
7:00 AM55 °FOvercast.8 mph68%29.80 "Hg16 mi
4:00 AM53 °FOvercast.6 mph77%29.86 "Hg25 mi
3:00 AM52 °FOvercast.3 mph76%29.87 "Hg22 mi
Weather by CustomWeather, © 2015

See weather overviewHow to use our weather pages